DW0148 Weather Reports


time (UTC)temp
C
wind
direction
speed
KPH
gust
KPH
rain 1hr
cm
rain 24hr
cm
rain mn
cm
humidity
%
barometer
mb
20200124012330 3 79 0.0 3.2 0.00 0.05 0.05 94 1017.9
20200124011829 3 79 0.0 3.2 0.00 0.05 0.05 94 1017.9
20200124011329 3 79 0.0 3.2 0.00 0.05 0.05 94 1017.9
20200124010827 3 80 1.6 3.2 0.00 0.05 0.05 94 1018.3
20200124010326 3 83 0.0 0.0 0.00 0.05 0.05 94 1018.3
20200124005825 3 82 0.0 0.0 0.00 0.05 0.05 94 1018.3
20200124005323 3 84 0.0 0.0 0.00 0.05 0.05 94 1018.3
20200124004822 3 82 0.0 0.0 0.00 0.05 0.05 94 1018.3
20200124004320 3 84 0.0 0.0 0.00 0.05 0.05 94 1018.3
20200124003816 3 82 0.0 0.0 0.00 0.05 0.05 94 1018.6
20200124003315 3 82 0.0 0.0 0.00 0.05 0.05 94 1018.3
20200124002814 3 83 0.0 0.0 0.00 0.05 0.05 94 1018.6
20200124002311 3 83 0.0 0.0 0.00 0.05 0.05 94 1018.6
20200124001810 3 84 0.0 3.2 0.00 0.05 0.05 93 1018.6
20200124001309 3 83 0.0 3.2 0.00 0.05 0.05 94 1018.6
20200124000808 3 83 0.0 3.2 0.00 0.05 0.05 93 1018.6
20200124000307 3 83 0.0 3.2 0.00 0.05 0.05 93 1018.3
20200123235801 3 83 0.0 3.2 0.00 0.05 0.05 93 1018.6
20200123235300 3 32 0.0 0.0 0.00 0.05 0.05 93 1018.6
20200123234758 3 32 0.0 0.0 0.00 0.05 0.05 93 1018.6
20200123234257 3 32 0.0 0.0 0.00 0.05 0.05 93 1018.6
20200123233755 3 32 0.0 0.0 0.00 0.05 0.05 93 1018.6
20200123233253 3 32 0.0 0.0 0.00 0.05 0.05 93 1018.3
20200123232756 3 32 0.0 0.0 0.00 0.05 0.05 93 1018.6
20200123231424 3 340 0.0 0.0 0.00 0.05 0.05 91 1018.6
20200123230923 3 340 0.0 0.0 0.00 0.05 0.05 91 1018.6
20200123230421 3 340 0.0 0.0 0.00 0.05 0.05 91 1018.6
20200123225920 4 340 0.0 3.2 0.00 0.05 0.05 91 1018.6
20200123225419 4 340 0.0 3.2 0.00 0.05 0.05 90 1018.6
20200123224918 4 340 0.0 3.2 0.03 0.05 0.05 89 1018.6
20200123224416 4 340 0.0 3.2 0.03 0.05 0.05 89 1018.6
20200123223915 4 340 1.6 3.2 0.03 0.05 0.05 89 1018.6
20200123223414 4 340 0.0 3.2 0.03 0.05 0.05 89 1018.6
20200123222912 4 340 0.0 3.2 0.03 0.05 0.05 88 1018.6
20200123222411 4 340 0.0 3.2 0.03 0.05 0.05 89 1019.0
20200123221910 4 340 0.0 0.0 0.03 0.05 0.05 88 1019.0
20200123221409 5 340 0.0 0.0 0.03 0.05 0.05 87 1019.0
20200123220908 5 340 0.0 0.0 0.03 0.05 0.05 86 1019.0
20200123220407 5 340 0.0 0.0 0.03 0.05 0.05 86 1019.0
20200123215906 5 340 0.0 0.0 0.03 0.05 0.05 84 1019.3
20200123215405 5 340 0.0 0.0 0.03 0.05 0.05 82 1019.3
20200123214903 5 340 0.0 0.0 0.00 0.03 0.03 81 1019.3
20200123214402 5 340 0.0 4.8 0.00 0.03 0.03 80 1019.3
20200123213901 5 340 0.0 4.8 0.00 0.03 0.03 80 1019.3
20200123213358 5 340 0.0 4.8 0.00 0.03 0.03 81 1019.3
20200123212857 5 340 1.6 4.8 0.00 0.03 0.03 79 1019.3
20200123212356 5 340 1.6 4.8 0.00 0.03 0.03 78 1019.3
20200123211854 5 338 0.0 4.8 0.00 0.03 0.03 77 1019.3
20200123211352 5 338 1.6 8.0 0.00 0.03 0.03 77 1019.3
20200123210849 5 334 1.6 8.0 0.00 0.03 0.03 78 1019.6
20200123210348 5 335 1.6 8.0 0.00 0.03 0.03 79 1019.3
20200123205846 5 313 3.2 8.0 0.00 0.03 0.03 77 1019.3
20200123205345 5 9 3.2 8.0 0.00 0.03 0.03 78 1019.3
20200123204844 5 348 1.6 4.8 0.00 0.03 0.03 78 1019.6
20200123204343 5 322 0.0 8.0 0.00 0.03 0.03 77 1019.6
20200123203842 5 325 3.2 8.0 0.00 0.03 0.03 77 1019.6
20200123203341 5 27 1.6 8.0 0.00 0.03 0.03 77 1019.6
20200123202840 5 1 4.8 9.7 0.00 0.03 0.03 76 1019.6
20200123202338 5 354 4.8 9.7 0.00 0.03 0.03 76 1019.6
20200123201837 5 335 1.6 9.7 0.00 0.03 0.03 77 1019.6
20200123201336 5 5 4.8 9.7 0.00 0.03 0.03 78 1019.6
20200123200835 5 355 4.8 9.7 0.00 0.03 0.03 77 1019.6
20200123200334 5 340 3.2 9.7 0.00 0.03 0.03 78 1020.0
20200123195833 4 311 3.2 14.5 0.00 0.03 0.03 78 1020.0
20200123195332 4 326 1.6 14.5 0.00 0.03 0.03 80 1020.0
20200123194831 4 350 4.8 14.5 0.00 0.03 0.03 80 1020.0
20200123194329 4 334 8.0 14.5 0.00 0.03 0.03 79 1020.0
20200123193828 4 350 6.4 12.9 0.00 0.03 0.03 79 1020.3
20200123193327 4 26 3.2 9.7 0.00 0.03 0.03 79 1020.3
20200123192826 4 352 3.2 9.7 0.00 0.03 0.03 79 1020.3
20200123192323 4 28 3.2 9.7 0.00 0.03 0.03 78 1020.3
20200123191822 4 355 4.8 8.0 0.03 0.03 0.03 81 1020.7
20200123191321 4 349 1.6 3.2 0.03 0.03 0.03 77 1021.0
20200123190824 4 259 0.0 3.2 0.03 0.03 0.03 79 1021.0
20200123160248 3 287 0.0 3.2 0.00 0.00 0.00 66 1024.7
20200123155746 3 287 1.6 8.0 0.00 0.00 0.00 65 1024.4
20200123155245 3 287 0.0 8.0 0.00 0.00 0.00 65 1024.4
20200123154744 3 301 0.0 8.0 0.00 0.00 0.00 65 1024.4
20200123154243 3 299 1.6 8.0 0.00 0.00 0.00 66 1024.4
20200123153742 3 21 3.2 8.0 0.00 0.00 0.00 66 1024.7
20200123153241 3 343 1.6 8.0 0.00 0.00 0.00 67 1024.7
20200123152739 2 345 3.2 8.0 0.00 0.00 0.00 66 1024.7
20200123152239 2 328 1.6 8.0 0.00 0.00 0.00 67 1024.7
20200123151738 2 2 3.2 8.0 0.00 0.00 0.00 67 1024.7
20200123151238 2 6 3.2 8.0 0.00 0.00 0.00 68 1024.4
20200123150735 2 344 3.2 4.8 0.00 0.00 0.00 69 1024.4
20200123150234 2 349 3.2 4.8 0.00 0.00 0.00 71 1024.4
20200123145733 2 347 3.2 4.8 0.00 0.00 0.00 71 1024.4
20200123145232 2 294 1.6 3.2 0.00 0.00 0.00 73 1024.4
20200123144731 2 336 1.6 3.2 0.00 0.00 0.00 73 1024.4
20200123144229 2 1 1.6 8.0 0.00 0.00 0.00 76 1024.4
20200123143728 2 0 1.6 9.7 0.00 0.00 0.00 76 1024.0
20200123143227 1 348 1.6 9.7 0.00 0.00 0.00 78 1024.0
20200123142726 1 347 3.2 9.7 0.00 0.00 0.00 78 1023.7
20200123142225 1 330 4.8 9.7 0.00 0.00 0.00 78 1023.7
20200123141723 1 353 3.2 8.0 0.00 0.00 0.00 81 1024.0
20200123141222 1 84 0.0 4.8 0.00 0.00 0.00 83 1024.0
20200123140721 1 85 1.6 4.8 0.00 0.00 0.00 84 1024.4
20200123140220 1 322 1.6 4.8 0.00 0.00 0.00 84 1024.0
20200123135719 1 243 1.6 3.2 0.00 0.00 0.00 85 1024.0
20200123135218 1 243 0.0 3.2 0.00 0.00 0.00 85 1024.0
20200123134717 0 243 0.0 3.2 0.00 0.00 0.00 85 1024.0
20200123134215 0 243 1.6 3.2 0.00 0.00 0.00 85 1024.4
20200123133714 0 243 0.0 3.2 0.00 0.00 0.00 85 1024.4
20200123133213 0 243 0.0 3.2 0.00 0.00 0.00 85 1024.4
20200123132712 0 243 0.0 3.2 0.00 0.00 0.00 85 1024.4
20200123132211 0 292 1.6 3.2 0.00 0.00 0.00 86 1024.4
20200123131710 0 25 0.0 3.2 0.00 0.00 0.00 86 1024.4
20200123131209 0 25 1.6 3.2 0.00 0.00 0.00 87 1024.4
20200123130707 0 44 1.6 3.2 0.00 0.00 0.00 86 1024.4
20200123130207 0 69 1.6 3.2 0.00 0.00 0.00 86 1024.7
20200123125706 0 69 0.0 3.2 0.00 0.00 0.00 86 1024.7
20200123125204 0 69 0.0 3.2 0.00 0.00 0.00 86 1024.7
20200123124703 0 69 1.6 4.8 0.00 0.00 0.00 86 1024.7
20200123124202 0 69 0.0 4.8 0.00 0.00 0.00 86 1024.7
20200123123701 0 76 1.6 3.2 0.00 0.00 0.00 86 1024.7
20200123123200 0 82 0.0 3.2 0.00 0.00 0.00 86 1025.1
20200123122659 0 82 0.0 3.2 0.00 0.00 0.00 87 1025.1
20200123122157 0 82 0.0 3.2 0.00 0.00 0.00 87 1025.1
20200123121656 0 82 0.0 3.2 0.00 0.00 0.00 87 1025.1
20200123121155 0 82 1.6 3.2 0.00 0.00 0.00 87 1025.1
20200123120654 0 82 0.0 0.0 0.00 0.00 0.00 88 1025.1
20200123120153 0 82 0.0 3.2 0.00 0.00 0.00 87 1025.1
20200123115652 0 82 0.0 3.2 0.00 0.00 0.00 88 1025.4
20200123115151 0 82 0.0 3.2 0.00 0.00 0.00 88 1025.1
20200123114650 0 82 0.0 3.2 0.00 0.00 0.00 89 1025.1
20200123114148 0 82 0.0 0.0 0.00 0.00 0.00 87 1025.4
20200123113646 0 82 0.0 0.0 0.00 0.00 0.00 88 1025.4
20200123113146 -1 82 0.0 3.2 0.00 0.00 0.00 88 1025.1
20200123112644 -1 82 0.0 3.2 0.00 0.00 0.00 87 1025.1
20200123112143 -1 82 0.0 4.8 0.00 0.00 0.00 87 1024.7
20200123111643 -1 68 1.6 4.8 0.00 0.00 0.00 87 1024.7
20200123111138 -1 60 0.0 3.2 0.00 0.00 0.00 87 1025.1
20200123110637 -1 60 0.0 3.2 0.00 0.00 0.00 87 1025.1
20200123110136 -1 59 0.0 0.0 0.00 0.00 0.00 87 1025.1
20200123105632 -1 59 0.0 0.0 0.00 0.00 0.00 86 1025.1
20200123105131 -1 60 0.0 0.0 0.00 0.00 0.00 86 1025.1
20200123104630 -1 60 0.0 0.0 0.00 0.00 0.00 85 1024.7
20200123104130 -1 59 0.0 3.2 0.00 0.00 0.00 85 1024.7
20200123103628 -1 59 0.0 3.2 0.00 0.00 0.00 85 1024.7
20200123103127 -1 60 0.0 3.2 0.00 0.00 0.00 85 1024.4
20200123102626 -1 60 0.0 3.2 0.00 0.00 0.00 86 1024.4
20200123102125 -1 59 0.0 0.0 0.00 0.00 0.00 86 1024.7
20200123101624 -1 60 0.0 0.0 0.00 0.00 0.00 86 1024.7
20200123101123 -1 60 0.0 0.0 0.00 0.00 0.00 86 1024.4
20200123100622 -1 59 0.0 3.2 0.00 0.00 0.00 85 1024.4
20200123100121 -1 60 0.0 3.2 0.00 0.00 0.00 85 1024.4
20200123095620 -1 59 0.0 3.2 0.00 0.00 0.00 85 1024.4
20200123095119 -1 59 0.0 4.8 0.00 0.00 0.00 85 1024.0
20200123094618 -1 59 0.0 4.8 0.00 0.00 0.00 85 1024.4
20200123094117 -1 60 1.6 4.8 0.00 0.00 0.00 86 1024.4
20200123093616 -1 60 0.0 3.2 0.00 0.00 0.00 86 1024.7
20200123093115 -1 60 1.6 3.2 0.00 0.00 0.00 87 1024.7
20200123092613 -1 60 0.0 0.0 0.00 0.00 0.00 87 1024.7
20200123092112 -1 61 0.0 0.0 0.00 0.00 0.00 87 1024.7
20200123091611 -1 61 0.0 0.0 0.00 0.00 0.00 87 1024.7
20200123091110 -1 60 0.0 0.0 0.00 0.00 0.00 86 1024.7
20200123090609 -1 61 0.0 0.0 0.00 0.00 0.00 86 1024.4
20200123090107 -1 60 0.0 0.0 0.00 0.00 0.00 86 1024.4
20200123085606 -1 60 0.0 0.0 0.00 0.00 0.00 86 1024.4
20200123085105 -1 61 0.0 0.0 0.00 0.00 0.00 86 1024.4
20200123084603 -1 60 0.0 3.2 0.00 0.00 0.00 86 1024.4
20200123084102 -1 60 0.0 3.2 0.00 0.00 0.00 86 1024.4
20200123083600 -1 61 0.0 3.2 0.00 0.00 0.00 87 1024.4
20200123083059 -1 61 0.0 3.2 0.00 0.00 0.00 87 1024.7
20200123082557 -1 61 0.0 0.0 0.00 0.00 0.00 87 1024.7
20200123082055 -1 60 0.0 0.0 0.00 0.00 0.00 87 1024.7
20200123081553 -1 60 0.0 0.0 0.00 0.00 0.00 87 1024.7
20200123081052 -1 61 0.0 0.0 0.00 0.00 0.00 87 1024.7
20200123080550 -1 61 0.0 3.2 0.00 0.00 0.00 87 1024.7
20200123080049 -1 60 0.0 3.2 0.00 0.00 0.00 87 1024.7
20200123075547 -1 60 0.0 3.2 0.00 0.00 0.00 87 1024.7
20200123075046 -1 60 1.6 3.2 0.00 0.00 0.00 87 1024.7
20200123074545 -1 60 0.0 0.0 0.00 0.00 0.00 86 1024.7
20200123074043 -1 61 0.0 0.0 0.00 0.00 0.00 87 1024.7
20200123073541 -1 60 0.0 3.2 0.00 0.00 0.00 86 1024.7
20200123073040 -1 61 0.0 3.2 0.00 0.00 0.00 87 1024.7
20200123072538 -1 60 0.0 3.2 0.00 0.00 0.00 86 1024.7
20200123072037 -1 60 1.6 3.2 0.00 0.00 0.00 86 1024.7
20200123071535 -1 60 0.0 0.0 0.00 0.00 0.00 86 1024.7
20200123071034 -1 61 0.0 0.0 0.00 0.00 0.00 86 1024.7
20200123070532 -1 60 0.0 0.0 0.00 0.00 0.00 85 1024.7
20200123070030 -1 61 0.0 0.0 0.00 0.00 0.00 86 1024.7
20200123065529 -1 60 0.0 0.0 0.00 0.00 0.00 85 1024.7
20200123065028 -1 60 0.0 0.0 0.00 0.00 0.00 85 1024.7
20200123064527 -1 60 0.0 3.2 0.00 0.00 0.00 86 1024.7
20200123064027 -1 60 0.0 3.2 0.00 0.00 0.00 86 1024.7
20200123063525 -1 60 0.0 3.2 0.00 0.00 0.00 86 1024.7
20200123063024 -1 61 1.6 3.2 0.00 0.00 0.00 86 1024.7
20200123062523 -1 60 0.0 0.0 0.00 0.00 0.00 85 1025.1
20200123062021 -1 60 0.0 0.0 0.00 0.00 0.00 84 1025.1
20200123061520 -1 61 0.0 3.2 0.00 0.00 0.00 84 1024.7
20200123061019 -1 60 0.0 3.2 0.00 0.00 0.00 84 1025.1
20200123060518 -1 61 0.0 3.2 0.00 0.00 0.00 85 1025.1
20200123060017 -1 60 0.0 0.0 0.00 0.00 0.00 84 1025.1
20200123055516 -1 61 0.0 0.0 0.00 0.00 0.00 83 1025.1
20200123055015 -1 60 0.0 3.2 0.00 0.00 0.00 83 1025.1
20200123054514 -1 61 1.6 3.2 0.00 0.00 0.00 83 1025.1
20200123054012 -1 61 0.0 0.0 0.00 0.00 0.00 81 1025.4
20200123053511 -1 60 0.0 0.0 0.00 0.00 0.00 81 1025.1
20200123053010 -1 60 0.0 0.0 0.00 0.00 0.00 80 1025.1
20200123052509 -1 60 0.0 0.0 0.00 0.00 0.00 81 1025.1
20200123052007 -1 60 0.0 0.0 0.00 0.00 0.00 81 1025.1
20200123051506 0 60 0.0 0.0 0.00 0.00 0.00 80 1025.4
20200123051004 0 60 0.0 3.2 0.00 0.00 0.00 79 1025.4
20200123050502 0 60 0.0 3.2 0.00 0.00 0.00 79 1025.4
20200123050001 0 60 0.0 3.2 0.00 0.00 0.00 79 1025.4
20200123045459 0 60 1.6 3.2 0.00 0.00 0.00 79 1025.4
20200123044958 0 60 0.0 0.0 0.00 0.00 0.00 79 1025.7
20200123044457 0 60 0.0 0.0 0.00 0.00 0.00 79 1025.7
20200123043956 0 60 0.0 0.0 0.00 0.00 0.00 79 1025.7
20200123043454 0 60 0.0 0.0 0.00 0.00 0.00 80 1025.7
20200123042953 0 60 0.0 0.0 0.00 0.00 0.00 79 1025.7
20200123042452 0 60 0.0 0.0 0.00 0.00 0.00 80 1025.7
20200123041950 0 60 0.0 0.0 0.00 0.00 0.00 78 1026.1
20200123041449 -1 61 0.0 0.0 0.00 0.00 0.00 77 1026.1
20200123040947 -1 61 0.0 0.0 0.00 0.00 0.00 77 1026.1
20200123040445 -1 60 0.0 0.0 0.00 0.00 0.00 79 1025.7
20200123035944 -1 60 0.0 0.0 0.00 0.00 0.00 79 1025.7
20200123035443 0 60 0.0 0.0 0.00 0.00 0.00 78 1026.1
20200123034942 0 60 0.0 0.0 0.00 0.00 0.00 78 1026.1
20200123034441 0 60 0.0 0.0 0.00 0.00 0.00 79 1026.1
20200123033940 -1 61 0.0 0.0 0.00 0.00 0.00 77 1026.1
20200123033438 -1 60 0.0 0.0 0.00 0.00 0.00 77 1026.1
20200123032938 -1 60 0.0 0.0 0.00 0.00 0.00 76 1026.4
20200123032436 -1 60 0.0 0.0 0.00 0.00 0.00 77 1026.4
20200123031935 0 60 0.0 3.2 0.00 0.00 0.00 78 1026.4
20200123031434 -1 61 0.0 3.2 0.00 0.00 0.00 78 1026.4
20200123030933 0 61 0.0 3.2 0.00 0.00 0.00 77 1026.4
20200123030432 0 60 1.6 3.2 0.00 0.00 0.00 77 1026.8
20200123025930 0 60 0.0 0.0 0.00 0.00 0.00 75 1026.8
20200123025429 0 61 0.0 0.0 0.00 0.00 0.00 73 1026.8
20200123024927 0 60 0.0 0.0 0.00 0.00 0.00 74 1026.4
20200123024427 0 61 0.0 3.2 0.00 0.00 0.00 75 1026.4
20200123023924 0 60 0.0 3.2 0.00 0.00 0.00 76 1026.4
20200123023423 0 60 0.0 3.2 0.00 0.00 0.00 73 1026.8
20200123022922 0 60 1.6 3.2 0.00 0.00 0.00 77 1026.8
20200123022421 0 60 0.0 0.0 0.00 0.00 0.00 74 1026.8
20200123021920 0 60 0.0 3.2 0.00 0.00 0.00 74 1026.8
20200123021419 0 60 0.0 3.2 0.00 0.00 0.00 75 1026.8
20200123020918 0 60 0.0 3.2 0.00 0.00 0.00 76 1026.8
20200123020417 0 61 0.0 3.2 0.00 0.00 0.00 76 1027.1
20200123015916 0 60 0.0 3.2 0.00 0.00 0.00 74 1027.1
20200123015415 0 60 0.0 3.2 0.00 0.00 0.00 72 1026.8
20200123014914 0 60 1.6 3.2 0.00 0.00 0.00 73 1026.8
20200123014413 0 60 0.0 0.0 0.00 0.00 0.00 73 1027.1
20200123013911 0 60 0.0 0.0 0.00 0.00 0.00 75 1026.8
20200123013410 0 60 0.0 0.0 0.00 0.00 0.00 75 1026.8
20200123012909 0 60 0.0 3.2 0.00 0.00 0.00 74 1026.8